TimePDT,TemperatureF,Dew PointF,Humidity,Sea Level PressureIn,VisibilityMPH,Wind Direction,Wind SpeedMPH,Gust SpeedMPH,PrecipitationIn,Events,Conditions,WindDirDegrees,DateUTC
12:15 AM,66.2,35.6,32,30.06,10.0,West,9.2,-,N/A,,Clear,270,2013-09-08 07:15:00
12:35 AM,68.0,35.6,30,30.06,10.0,West,6.9,-,N/A,,Clear,280,2013-09-08 07:35:00
12:55 AM,68.0,35.6,30,30.05,10.0,West,10.4,-,N/A,,Clear,270,2013-09-08 07:55:00
1:15 AM,68.0,35.6,30,30.05,10.0,NNW,4.6,-,N/A,,Clear,330,2013-09-08 08:15:00
1:35 AM,66.2,33.8,30,30.05,10.0,Calm,Calm,-,N/A,,Clear,0,2013-09-08 08:35:00
1:55 AM,66.2,33.8,30,30.05,10.0,Calm,Calm,-,N/A,,Clear,0,2013-09-08 08:55:00
2:15 AM,66.2,35.6,32,30.04,10.0,West,3.5,-,N/A,,Clear,270,2013-09-08 09:15:00
2:35 AM,64.4,32.0,30,30.04,10.0,Calm,Calm,-,N/A,,Clear,0,2013-09-08 09:35:00
2:55 AM,66.2,32.0,28,30.04,10.0,Calm,Calm,-,N/A,,Clear,0,2013-09-08 09:55:00
3:15 AM,64.4,30.2,28,30.04,10.0,North,4.6,-,N/A,,Clear,10,2013-09-08 10:15:00
3:35 AM,62.6,28.4,27,30.03,10.0,Calm,Calm,-,N/A,,Clear,0,2013-09-08 10:35:00
3:55 AM,62.6,30.2,30,30.03,10.0,Calm,Calm,-,N/A,,Clear,0,2013-09-08 10:55:00
4:15 AM,62.6,30.2,30,30.03,10.0,West,3.5,-,N/A,,Clear,270,2013-09-08 11:15:00
4:35 AM,62.6,32.0,32,30.03,10.0,West,4.6,-,N/A,,Clear,260,2013-09-08 11:35:00
4:55 AM,62.6,30.2,30,30.03,10.0,West,5.8,-,N/A,,Clear,260,2013-09-08 11:55:00
5:15 AM,62.6,30.2,30,30.03,10.0,WNW,3.5,-,N/A,,Clear,290,2013-09-08 12:15:00
5:35 AM,64.4,32.0,30,30.03,10.0,West,5.8,-,N/A,,Clear,280,2013-09-08 12:35:00
5:55 AM,62.6,32.0,32,30.03,10.0,Calm,Calm,-,N/A,,Clear,0,2013-09-08 12:55:00
6:15 AM,62.6,30.2,30,30.04,10.0,Calm,Calm,-,N/A,,Clear,0,2013-09-08 13:15:00
6:35 AM,60.8,32.0,34,30.04,10.0,Calm,Calm,-,N/A,,Clear,0,2013-09-08 13:35:00
6:55 AM,59.0,32.0,36,30.04,10.0,Calm,Calm,-,N/A,,Clear,0,2013-09-08 13:55:00
7:15 AM,62.6,30.2,30,30.05,10.0,WNW,4.6,-,N/A,,Clear,290,2013-09-08 14:15:00
7:35 AM,66.2,32.0,28,30.05,10.0,Calm,Calm,-,N/A,,Clear,0,2013-09-08 14:35:00
7:55 AM,71.6,32.0,23,30.05,10.0,West,5.8,-,N/A,,Clear,280,2013-09-08 14:55:00
8:15 AM,73.4,32.0,22,30.05,10.0,NW,5.8,-,N/A,,Clear,310,2013-09-08 15:15:00
8:35 AM,73.4,32.0,22,30.04,10.0,NW,8.1,-,N/A,,Clear,310,2013-09-08 15:35:00
8:55 AM,75.2,33.8,22,30.05,10.0,NW,8.1,-,N/A,,Clear,310,2013-09-08 15:55:00
9:15 AM,77.0,35.6,22,30.05,10.0,WNW,9.2,-,N/A,,Clear,300,2013-09-08 16:15:00
9:35 AM,77.0,35.6,22,30.05,10.0,NW,8.1,-,N/A,,Clear,320,2013-09-08 16:35:00
9:55 AM,78.8,39.2,24,30.05,9.0,NW,8.1,-,N/A,,Clear,320,2013-09-08 16:55:00
10:15 AM,80.6,39.2,23,30.05,10.0,NW,6.9,-,N/A,,Clear,310,2013-09-08 17:15:00
10:35 AM,80.6,37.4,21,30.05,10.0,NW,5.8,-,N/A,,Clear,310,2013-09-08 17:35:00
10:55 AM,82.4,35.6,19,30.04,10.0,WNW,10.4,-,N/A,,Clear,290,2013-09-08 17:55:00
11:15 AM,82.4,35.6,19,30.04,10.0,West,11.5,-,N/A,,Clear,260,2013-09-08 18:15:00
11:35 AM,84.2,35.6,18,30.03,9.0,WNW,10.4,-,N/A,,Clear,300,2013-09-08 18:35:00
11:55 AM,84.2,33.8,16,30.03,10.0,NW,10.4,-,N/A,,Clear,310,2013-09-08 18:55:00
12:15 PM,86.0,32.0,14,30.02,10.0,NW,11.5,-,N/A,,Clear,320,2013-09-08 19:15:00
12:35 PM,86.0,32.0,14,30.02,10.0,NW,11.5,-,N/A,,Clear,310,2013-09-08 19:35:00
12:55 PM,86.0,33.8,15,30.01,10.0,NW,10.4,-,N/A,,Clear,310,2013-09-08 19:55:00
1:15 PM,86.0,33.8,15,30.01,10.0,NW,12.7,18.4,N/A,,Clear,320,2013-09-08 20:15:00
1:35 PM,86.0,37.4,18,30.00,10.0,NW,13.8,19.6,N/A,,Clear,320,2013-09-08 20:35:00
1:55 PM,86.0,39.2,19,30.00,10.0,NW,16.1,-,N/A,,Clear,320,2013-09-08 20:55:00
2:15 PM,86.0,39.2,19,29.99,10.0,NW,16.1,20.7,N/A,,Clear,320,2013-09-08 21:15:00
2:35 PM,86.0,39.2,19,29.98,10.0,NW,13.8,19.6,N/A,,Clear,320,2013-09-08 21:35:00
2:55 PM,86.0,39.2,19,29.98,10.0,NW,17.3,21.9,N/A,,Clear,320,2013-09-08 21:55:00
3:15 PM,86.0,39.2,19,29.97,10.0,NW,13.8,21.9,N/A,,Clear,310,2013-09-08 22:15:00
3:35 PM,86.0,37.4,18,29.97,10.0,NW,13.8,19.6,N/A,,Clear,310,2013-09-08 22:35:00
3:55 PM,84.2,39.2,20,29.96,10.0,NW,15.0,-,N/A,,Clear,310,2013-09-08 22:55:00
4:15 PM,84.2,39.2,20,29.96,10.0,NW,18.4,-,N/A,,Clear,310,2013-09-08 23:15:00
4:35 PM,84.2,37.4,19,29.96,10.0,NW,13.8,19.6,N/A,,Clear,310,2013-09-08 23:35:00
4:55 PM,84.2,39.2,20,29.96,10.0,NW,16.1,-,N/A,,Clear,310,2013-09-08 23:55:00
5:15 PM,84.2,39.2,20,29.95,10.0,NW,13.8,19.6,N/A,,Clear,310,2013-09-09 00:15:00
5:35 PM,82.4,39.2,21,29.95,10.0,NW,13.8,20.7,N/A,,Clear,310,2013-09-09 00:35:00
5:55 PM,82.4,39.2,21,29.95,10.0,NW,13.8,20.7,N/A,,Clear,310,2013-09-09 00:55:00
6:15 PM,80.6,39.2,23,29.95,10.0,NW,13.8,-,N/A,,Clear,310,2013-09-09 01:15:00
6:35 PM,80.6,39.2,23,29.96,10.0,WNW,12.7,-,N/A,,Clear,300,2013-09-09 01:35:00
6:55 PM,78.8,39.2,24,29.96,10.0,WNW,11.5,-,N/A,,Clear,300,2013-09-09 01:55:00
7:15 PM,77.0,39.2,26,29.96,10.0,WNW,10.4,-,N/A,,Clear,300,2013-09-09 02:15:00
7:35 PM,75.2,39.2,27,29.97,10.0,West,9.2,-,N/A,,Clear,280,2013-09-09 02:35:00
7:55 PM,75.2,39.2,27,29.97,10.0,West,6.9,-,N/A,,Clear,280,2013-09-09 02:55:00
8:15 PM,73.4,39.2,29,29.98,10.0,WNW,3.5,-,N/A,,Clear,290,2013-09-09 03:15:00
8:35 PM,71.6,41.0,33,29.99,10.0,NNW,3.5,-,N/A,,Clear,330,2013-09-09 03:35:00
8:55 PM,73.4,41.0,31,30.00,10.0,Calm,Calm,-,N/A,,Partly Cloudy,0,2013-09-09 03:55:00
9:15 PM,73.4,41.0,31,30.01,10.0,Calm,Calm,-,N/A,,Partly Cloudy,0,2013-09-09 04:15:00
9:35 PM,71.6,41.0,33,30.01,10.0,Calm,Calm,-,N/A,,Clear,0,2013-09-09 04:35:00
9:55 PM,68.0,41.0,37,30.01,10.0,SE,5.8,-,N/A,,Clear,130,2013-09-09 04:55:00
10:15 PM,68.0,41.0,37,30.02,10.0,East,3.5,-,N/A,,Clear,100,2013-09-09 05:15:00
10:35 PM,68.0,41.0,37,30.02,10.0,Calm,Calm,-,N/A,,Clear,0,2013-09-09 05:35:00
10:55 PM,68.0,39.2,35,30.02,10.0,Calm,Calm,-,N/A,,Clear,0,2013-09-09 05:55:00
11:15 PM,66.2,39.2,37,30.02,10.0,ESE,5.8,-,N/A,,Clear,120,2013-09-09 06:15:00
11:35 PM,66.2,39.2,37,30.02,10.0,ESE,6.9,-,N/A,,Clear,120,2013-09-09 06:35:00
11:55 PM,68.0,42.8,40,30.02,10.0,SE,4.6,-,N/A,,Clear,130,2013-09-09 06:55:00